Location: Alfords
(31.4624°N, 83.9238°W)
Time: 21:57:36
(UTC+00:00)

Tiangong - Visible Passes

Search period start: 28 September 2021 00:00
Search period end: 08 October 2021 00:00
Orbit: 382 x 385 km, 41.5° (Epoch: 28 September)

Date Brightness Start Highest point End Pass type
(mag) Time Alt. Az. Time Alt. Az. Time Alt. Az.
28 Sep 2.9 09:47:12 26° NNE 09:47:12 26° NNE 09:49:05 10° NE visible
29 Sep 3.2 10:22:24 15° NW 10:23:23 17° NNW 10:25:32 10° NNE visible
30 Sep 4.2 09:25:22 12° NNE 09:25:22 12° NNE 09:25:46 10° NE visible
30 Sep 3.6 10:59:09 10° NNW 11:00:47 13° N 11:02:25 10° NNE visible
01 Oct 3.5 10:00:30 14° N 10:00:32 14° N 10:02:19 10° NNE visible
02 Oct 3.6 10:36:09 10° NNW 10:37:56 14° N 10:39:43 10° NE visible
03 Oct 4.0 09:38:34 12° NNE 09:38:34 12° NNE 09:39:18 10° NNE visible
04 Oct 3.4 10:13:43 14° NNW 10:15:01 16° NNE 10:17:09 10° NE visible
05 Oct 2.5 10:49:17 10° NW 10:52:11 32° NNE 10:55:04 10° E visible
06 Oct 3.1 09:52:00 22° NNE 09:52:01 22° NNE 09:54:33 10° ENE visible
07 Oct 1.5 10:27:21 24° NW 10:29:01 57° NNE 10:32:07 10° ESE visible
